[[{"header":{"parameterUnit":"m.s-1","parameterCategory":1,"la1":30.2991,"la2":30.254,"lo1":-89.0895,"lo2":-89.0444,"dy":0.0017,"dx":0.0017,"nx":28,"ny":28,"refTime":"2024-02-04T03:00:00:Z","depth":0,"parameterNumber":2,"parameterNumberName":"U-component_of_WINDS"},"data":[0,0,0,0,0,0,0,0,0,0,0,0,0,0,0,0,0,0,0,0,0,0,0,0,0,0,0,0,0,0,0,0,0,0,0,0,0,0,0,0,0,0,0,0,0,0,0,0,0,0,0,0,0,0,0,0,0,0,-9.2968,-9.2968,0,-9.29,-9.2899,-9.2898,-9.2688,-9.2684,-9.2679,-9.2675,-9.2609,-9.2611,-9.2614,0,0,0,0,0,0,0,0,0,0,0,0,0,-9.2924,-9.2926,-9.2969,-9.2968,-9.2967,-9.29,-9.2899,-9.2898,-9.2689,-9.2683,-9.2678,-9.2672,-9.2608,-9.2611,-9.2614,0,0,0,0,0,0,0,0,0,0,0,0,0,-9.2908,-9.2926,-9.2969,-9.2854,-9.2843,-9.29,-9.2899,-9.2898,-9.269,-9.2683,-9.2676,-9.267,-9.2607,-9.2611,-9.2615,-9.2778,0,0,-9.2626,-9.2628,0,0,0,0,0,0,0,0,-9.291,-9.291,-9.2872,-9.2862,-9.285,-9.2795,-9.2859,-9.2858,-9.2692,-9.2749,-9.2674,-9.2666,-9.2677,-9.2675,-9.2677,-9.2775,-9.2772,-9.2627,-9.2629,-9.2631,-9.2632,0,0,0,0,0,0,0,-9.2911,-9.2912,-9.2941,-9.2872,-9.2858,-9.2808,-9.2798,-9.2858,-9.2753,-9.2743,-9.2728,-9.2722,-9.267,-9.2674,-9.2674,-9.2771,-9.2627,-9.263,-9.2633,-9.2634,-9.3001,-9.3008,0,0,0,0,0,0,-9.2928,-9.2914,-9.2944,-9.2939,-9.2863,-9.2815,-9.2804,-9.282,-9.2752,-9.2734,-9.2728,-9.2713,-9.2671,-9.267,-9.2671,-9.2857,-9.2631,-9.2634,-9.2637,-9.2993,-9.3002,-9.301,0,0,0,0,0,0,-9.2927,-9.2932,-9.2946,-9.2923,-9.2921,-9.2823,-9.2843,-9.2822,-9.2826,-9.274,-9.2721,-9.2752,-9.2665,-9.2666,-9.2753,-9.2852,-9.2636,-9.264,-9.2984,-9.2996,-9.3006,-9.3231,0,0,0,0,0,0,-9.2927,-9.2933,-9.2993,-9.2925,-9.2923,-9.3028,-9.2849,-9.2826,-9.2833,-9.2812,-9.2757,-9.2741,-9.266,-9.2748,-9.2757,-9.2853,-9.2643,-9.2975,-9.299,-9.3003,-9.3215,-9.3249,-9.3278,0,0,0,0,0,-9.2926,-9.306,-9.2997,-9.3002,-9.2995,-9.3034,-9.3033,-9.2935,-9.2842,-9.2902,-9.2847,-9.2743,-9.2841,-9.2759,-9.2767,-9.2866,-9.2968,-9.2985,-9.3002,-9.32,-9.3242,-9.3277,0,0,0,0,0,0,-9.3142,-9.3049,-9.2978,-9.3093,-9.3074,-9.2999,-9.307,-9.2982,-9.2989,-9.2969,-9.2849,-9.2839,-9.2943,-9.2914,-9.2824,-9.3021,-9.2887,-9.2907,-9.3036,-9.3075,-9.3106,-9.311,-9.2646,0,0,0,0,0,-9.3203,-9.3242,-9.3158,-9.3269,-9.3262,-9.317,-9.3183,-9.3109,-9.3084,-9.3075,-9.3026,-9.3007,-9.3033,-9.3053,-9.3072,-9.3211,-9.3196,-9.3283,-9.3315,-9.3342,-9.3359,-9.343,-9.3468,-9.3065,-9.3065,-9.3065,0,0,-9.3329,-9.3283,-9.3315,-9.3311,-9.3286,-9.333,-9.3163,-9.3216,-9.3248,-9.3083,-9.3161,-9.3127,-9.3097,-9.3211,-9.3259,-9.319,-9.3467,-9.3363,-9.3385,-9.3387,-9.3451,-9.3489,-9.3523,-9.3076,-9.3074,-9.3072,0,0,-9.3581,-9.3551,-9.3638,-9.3618,-9.3583,-9.3521,-9.3543,-9.3482,-9.3452,-9.3529,-9.3406,-9.3444,-9.3492,-9.3476,-9.3474,-9.3725,-9.3629,-9.3735,-9.39,-9.3971,-9.4002,-9.403,-9.4118,-9.4152,-9.3753,-9.3753,-9.3754,0,-9.3742,-9.3801,-9.3695,-9.3756,-9.3759,-9.3612,-9.3701,-9.3687,-9.3662,-9.3668,-9.3591,-9.3648,-9.3618,-9.3726,-9.3788,-9.3792,-9.3813,-9.3739,-9.4006,-9.4033,-9.4057,-9.414,-9.4174,-9.3766,-9.3765,-9.3763,-9.3762,0,-9.4002,-9.4045,-9.4121,-9.4099,-9.411,-9.4186,-9.4092,-9.4117,-9.4045,-9.3992,-9.4073,-9.4033,-9.4042,-9.4063,-9.3993,-9.4162,-9.412,-9.4027,-9.389,-9.411,-9.4186,-9.4217,-9.3785,-9.378,-9.3776,-9.3773,0,0,-9.4383,-9.4303,-9.4333,-9.4321,-9.4274,-9.4306,-9.4377,-9.4384,-9.4408,-9.4397,-9.4453,-9.4498,-9.4412,-9.4411,-9.4338,-9.4401,-9.4601,-9.43,-9.4297,-9.4356,-9.4785,-9.4854,-9.4892,-9.454,-9.4545,-9.455,-9.4787,0,-9.462,-9.4732,-9.464,-9.4771,-9.481,-9.4673,-9.4734,-9.4714,-9.4667,-9.4695,-9.4644,-9.4678,-9.4562,-9.456,-9.4617,-9.4565,-9.4686,-9.4547,-9.4591,-9.4593,-9.4599,-9.4932,-9.5004,-9.523,-9.4816,-9.4821,-9.4825,0,-9.491,-9.4911,-9.5045,-9.499,-9.5003,-9.506,-9.506,-9.5089,-9.5063,-9.5025,-9.5026,-9.4937,-9.5004,-9.4872,-9.4963,-9.4871,-9.4884,-9.4863,-9.4869,-9.4867,-9.4721,-9.4937,-9.53,-9.5333,-9.4871,-9.4867,-9.4864,0,-9.5173,-9.5209,-9.5293,-9.5288,-9.5227,-9.527,-9.5247,-9.5214,-9.5225,-9.5227,-9.5233,-9.5244,-9.525,-9.5261,-9.5178,-9.509,-9.528,-9.5141,-9.5251,-9.5253,-9.5294,-9.5292,-9.5662,-9.5308,-9.5307,-9.5307,-9.5306,0,-9.5445,-9.5532,-9.541,-9.5462,-9.5556,-9.5452,-9.5549,-9.5512,-9.5485,-9.5528,-9.5413,-9.5457,-9.5346,-9.5379,-9.5316,-9.5401,-9.5405,-9.5377,-9.5358,-9.5385,-9.5389,-9.539,-9.5371,-9.5315,-9.5314,-9.5312,-9.531,0,-9.5753,-9.5675,-9.5758,-9.5694,-9.568,-9.5753,-9.5698,-9.5745,-9.5692,-9.5749,-9.5756,-9.5674,-9.5707,-9.5627,-9.5649,-9.5606,-9.5728,-9.5686,-9.5736,-9.5722,-9.5835,-9.5825,-9.6216,-9.6262,-9.5882,-9.5886,-9.5889,0,-9.593,-9.5994,-9.5937,-9.5957,-9.594,-9.5975,-9.5986,-9.5888,-9.5904,-9.5881,-9.5931,-9.5955,-9.5968,-9.6028,-9.5971,-9.5988,-9.5944,-9.608,-9.5945,-9.5971,-9.5944,-9.594,-9.5946,-9.6107,-9.6111,-9.6115,-9.6118,0,-9.6253,-9.6212,-9.623,-9.6238,-9.6254,-9.6255,-9.6248,-9.6272,-9.6167,-9.6192,-9.6224,-9.6235,-9.6257,-9.6282,-9.6287,-9.6264,-9.6175,-9.6162,-9.6188,-9.6214,-9.624,-9.6226,-9.5809,-9.6152,-9.6149,-9.6146,-9.6145,-9.6143,-9.6499,-9.6549,-9.6517,-9.6543,-9.6528,-9.6525,-9.6565,-9.6518,-9.6543,-9.6552,-9.6494,-9.6539,-9.6515,-9.6511,-9.6499,-9.6534,-9.6472,-9.651,-9.6519,-9.6529,-9.6547,-9.6238,-9.6535,-9.6534,-9.6533,-9.6532,-9.6531,0,-9.6813,-9.6787,-9.6812,-9.6806,-9.6827,-9.6742,-9.673,-9.6754,-9.6795,-9.6779,-9.6795,-9.6833,-9.6858,-9.6805,-9.6821,-9.686,-9.6819,-9.6867,-9.6862,-9.6859,-9.6602,-9.6577,-9.69,-9.69,-9.69,-9.69,-9.69,-9.69,-9.6979,-9.7059,-9.7016,-9.7089,-9.7062,-9.7104,-9.7105,-9.7102,-9.7089,-9.7137,-9.7156,-9.7121,-9.7091,-9.7105,-9.7125,-9.7109,-9.712,-9.7182,-9.7152,-9.6913,-9.6877,-9.6842,-9.6818,-9.7186,-9.7186,-9.7404,-9.7406,-9.7408]},{"header":{"parameterUnit":"m.s-1","parameterCategory":1,"la1":30.2991,"la2":30.254,"lo1":-89.0895,"lo2":-89.0444,"dy":0.0017,"dx":0.0017,"nx":28,"ny":28,"refTime":"2024-02-04T03:00:00:Z","depth":0,"parameterNumber":3,"parameterNumberName":"V-component_of_WINDS"},"data":[0,0,0,0,0,0,0,0,0,0,0,0,0,0,0,0,0,0,0,0,0,0,0,0,0,0,0,0,0,0,0,0,0,0,0,0,0,0,0,0,0,0,0,0,0,0,0,0,0,0,0,0,0,0,0,0,0,0,0.8929,0.893,0,0.8982,0.8982,0.8983,0.8994,0.8994,0.8993,0.8993,0.9047,0.9049,0.905,0,0,0,0,0,0,0,0,0,0,0,0,0,0.884,0.8841,0.8929,0.893,0.893,0.8982,0.8982,0.8983,0.8994,0.8994,0.8993,0.8993,0.9046,0.9048,0.9051,0,0,0,0,0,0,0,0,0,0,0,0,0,0.8884,0.8842,0.8929,0.8942,0.8944,0.8982,0.8982,0.8983,0.8994,0.8994,0.8993,0.8993,0.9046,0.9048,0.9051,0.9079,0,0,0.9059,0.906,0,0,0,0,0,0,0,0,0.8881,0.8887,0.8939,0.8941,0.8943,0.8981,0.8971,0.9015,0.8995,0.8975,0.8993,0.8992,0.9025,0.903,0.9041,0.9082,0.9084,0.9059,0.9061,0.9062,0.9063,0,0,0,0,0,0,0,0.8878,0.8885,0.895,0.894,0.8942,0.8946,0.8952,0.8979,0.9003,0.8977,0.8978,0.8984,0.9026,0.9038,0.9042,0.9085,0.9059,0.9062,0.9063,0.9064,0.9154,0.9155,0,0,0,0,0,0,0.8873,0.8882,0.8948,0.8951,0.891,0.8948,0.8954,0.8969,0.9003,0.9007,0.8984,0.8984,0.9034,0.9039,0.9044,0.9081,0.9062,0.9065,0.9066,0.9153,0.9154,0.9155,0,0,0,0,0,0,0.8871,0.8878,0.8946,0.8917,0.8926,0.895,0.8967,0.8971,0.8983,0.9008,0.9013,0.8992,0.9034,0.904,0.9071,0.9083,0.9066,0.9068,0.9152,0.9153,0.9155,0.9154,0,0,0,0,0,0,0.8868,0.8878,0.8888,0.8917,0.8928,0.8971,0.8968,0.8972,0.8987,0.8988,0.9017,0.9021,0.9034,0.9067,0.9074,0.9086,0.907,0.9151,0.9153,0.9154,0.9153,0.9155,0.9157,0,0,0,0,0,0.8865,0.8885,0.8889,0.8896,0.8941,0.8972,0.8978,0.8992,0.8988,0.8999,0.9016,0.902,0.9081,0.907,0.9078,0.9091,0.9151,0.9152,0.9154,0.9152,0.9155,0.9157,0,0,0,0,0,0,0.8856,0.8889,0.8893,0.8923,0.8945,0.8974,0.8988,0.8994,0.9017,0.9016,0.9033,0.904,0.907,0.9083,0.9071,0.9122,0.9116,0.9119,0.9111,0.9114,0.9116,0.9112,0.9073,0,0,0,0,0,0.8858,0.888,0.8908,0.8932,0.8943,0.8964,0.8978,0.8987,0.901,0.9019,0.9038,0.906,0.9084,0.91,0.9123,0.9155,0.9163,0.9169,0.917,0.9172,0.9175,0.9195,0.9198,0.9161,0.9161,0.9161,0,0,0.8861,0.8882,0.8895,0.8931,0.8948,0.8972,0.8971,0.8995,0.9013,0.9023,0.9053,0.9068,0.9094,0.9126,0.9141,0.9138,0.9187,0.9174,0.9175,0.9177,0.9197,0.92,0.9203,0.9162,0.9162,0.9161,0,0,0.888,0.8897,0.892,0.8938,0.8966,0.898,0.8986,0.9014,0.9025,0.9056,0.9064,0.9086,0.9127,0.9146,0.916,0.9189,0.9194,0.9196,0.9205,0.9225,0.9228,0.923,0.9242,0.9246,0.9199,0.9199,0.9199,0,0.888,0.8916,0.8931,0.8956,0.8972,0.8983,0.9007,0.9024,0.9057,0.9069,0.9065,0.9119,0.9137,0.9174,0.9182,0.9193,0.9201,0.9193,0.9226,0.9229,0.9232,0.9243,0.9247,0.9199,0.9199,0.9199,0.9199,0,0.8916,0.8941,0.8956,0.8989,0.9007,0.9031,0.9051,0.9068,0.9076,0.9091,0.9124,0.9146,0.9176,0.9185,0.9193,0.9225,0.9223,0.9222,0.9217,0.9235,0.9246,0.925,0.9199,0.9199,0.9199,0.9199,0,0,0.8929,0.8972,0.8977,0.8994,0.9026,0.9045,0.9071,0.91,0.9115,0.9138,0.9161,0.9196,0.9197,0.9214,0.9225,0.9241,0.9265,0.924,0.9241,0.9245,0.9303,0.9303,0.9308,0.9268,0.9269,0.927,0.9301,0,0.8952,0.8998,0.9014,0.9052,0.9076,0.9087,0.911,0.9133,0.9148,0.9171,0.9188,0.9213,0.9212,0.9223,0.924,0.9258,0.9277,0.9256,0.929,0.9291,0.9284,0.9313,0.9313,0.9341,0.9305,0.9306,0.9306,0,0.8984,0.9009,0.905,0.9082,0.9092,0.9112,0.9142,0.9163,0.919,0.92,0.922,0.923,0.9258,0.9251,0.9291,0.9277,0.9292,0.9304,0.9305,0.9309,0.93,0.9319,0.9351,0.9355,0.9313,0.9313,0.9312,0,0.8991,0.9035,0.9066,0.9079,0.9116,0.913,0.9146,0.9172,0.919,0.9216,0.9227,0.9256,0.9272,0.9294,0.9312,0.9305,0.9351,0.9345,0.9361,0.9361,0.937,0.937,0.9406,0.9379,0.9379,0.9379,0.9379,0,0.9016,0.904,0.907,0.9088,0.9117,0.9136,0.9164,0.9181,0.9205,0.9228,0.924,0.9261,0.9283,0.9308,0.9322,0.9354,0.9361,0.9371,0.9374,0.937,0.9369,0.9381,0.9379,0.938,0.938,0.9379,0.9379,0,0.9028,0.9048,0.9083,0.9116,0.9125,0.9145,0.9173,0.9193,0.9209,0.9239,0.9247,0.9273,0.9303,0.9323,0.9361,0.9371,0.9406,0.9408,0.9397,0.9399,0.9415,0.9413,0.946,0.9468,0.9435,0.9435,0.9435,0,0.9042,0.9062,0.9097,0.9114,0.9131,0.9157,0.9175,0.9195,0.9214,0.9247,0.9263,0.9294,0.932,0.9368,0.939,0.942,0.9424,0.9439,0.9429,0.9425,0.9426,0.9425,0.9428,0.944,0.9441,0.9441,0.9441,0,0.9066,0.9076,0.9102,0.9132,0.9154,0.9179,0.9204,0.9217,0.9241,0.9262,0.9293,0.9314,0.9354,0.9385,0.9417,0.9435,0.9443,0.9444,0.945,0.9446,0.9439,0.9445,0.9402,0.9443,0.9443,0.9442,0.9442,0.9442,0.9081,0.91,0.9128,0.9158,0.9179,0.9202,0.9223,0.9243,0.927,0.9304,0.9314,0.9348,0.9376,0.9421,0.9439,0.9465,0.9464,0.9472,0.9474,0.9476,0.9477,0.9434,0.9471,0.9471,0.9471,0.9471,0.9471,0,0.9106,0.9126,0.9153,0.9188,0.9212,0.9218,0.9246,0.9266,0.9295,0.9321,0.9347,0.9384,0.9415,0.9441,0.9473,0.949,0.9494,0.9498,0.9497,0.9501,0.9475,0.9468,0.9494,0.9494,0.9494,0.9494,0.9494,0.9494,0.9122,0.9155,0.9169,0.9214,0.9233,0.9266,0.9282,0.9305,0.9326,0.9367,0.9393,0.941,0.9437,0.9472,0.9501,0.9508,0.952,0.9522,0.953,0.9505,0.9503,0.95,0.9494,0.9525,0.9525,0.9555,0.9555,0.9555]}]]